Weather History for KSEP - November, 2012

Change the Weather History Date:

Friday, November 16, 2012

  Actual Average Record
Temperature  
Mean Temperature 50 °F -  
Max Temperature 62 °F 60 °F 87 °F (1921)
Min Temperature 39 °F 40 °F 18 °F (1959)
Degree Days  
Heating Degree Days 14    
Moisture  
Dew Point 30 °F    
Average Humidity 46    
Maximum Humidity 75    
Minimum Humidity 27    
Precipitation  
Precipitation 0.00 in - - ()
Sea Level Pressure  
Sea Level Pressure 30.37 in    
Wind  
Wind Speed 2 mph (East)    
Max Wind Speed 8 mph    
Max Gust Speed -    
Visibility 10 miles    
Events      
Averages and records for this station are not official NWS values.
T = Trace of Precipitation, MM = Missing Value Source: NWS Daily Summary

Daily Weather History Graph

Daily Weather History Graph

Search for Another Location

Airport or City:

Trip Planner

Search our weather history database for the weather conditions in past years. The results will help you decide how hot, cold, wet, or windy it might be!

Date:

Astronomy

Nov. 16, 2012 Rise Set
Actual Time 7:03 AM CST 5:31 PM CST
Civil Twilight 6:37 AM CST 5:57 PM CST
Nautical Twilight 6:07 AM CST 6:27 PM CST
Astronomical Twilight 5:38 AM CST 6:56 PM CST
Moon 9:56 AM CST (11/16) 8:35 PM CST (11/16)
Length of Visible Light 11h 20m
Length of Day
10h 28m
Waxing Crescent, 12% of the Moon is Illuminated
Nov 16
Waxing Crescent
Nov 20
First Quarter
Nov 28
Full
Dec 6
Last Quarter
Dec 13
New

Hourly Weather History & Observations

Time (CST) Temp. Windchill Dew Point Humidity Pressure Visibility Wind Dir Wind Speed Gust Speed Precip Events Conditions
12:15 AM 46.4 °F - 30.2 °F 53% 30.34 in 10.0 mi Calm Calm - N/A   Clear
12:35 AM 46.4 °F - 30.2 °F 53% 30.35 in 10.0 mi Calm Calm - N/A   Clear
12:55 AM 46.4 °F - 30.2 °F 53% 30.34 in 10.0 mi Calm Calm - N/A   Clear
1:15 AM 46.4 °F - 30.2 °F 53% 30.35 in 10.0 mi Calm Calm - N/A   Clear
1:35 AM 44.6 °F - 32.0 °F 61% 30.35 in 10.0 mi Calm Calm - N/A   Clear
1:55 AM 46.4 °F - 32.0 °F 57% 30.35 in 10.0 mi Calm Calm - N/A   Clear
2:15 AM 44.6 °F - 32.0 °F 61% 30.35 in 10.0 mi Calm Calm - N/A   Clear
2:35 AM 44.6 °F - 32.0 °F 61% 30.35 in 10.0 mi Calm Calm - N/A   Clear
2:55 AM 44.6 °F - 32.0 °F 61% 30.35 in 10.0 mi Calm Calm - N/A   Clear
3:15 AM 44.6 °F - 32.0 °F 61% 30.35 in 10.0 mi Calm Calm - N/A   Clear
3:35 AM 44.6 °F - 32.0 °F 61% 30.35 in 10.0 mi Calm Calm - N/A   Clear
3:55 AM 42.8 °F - 32.0 °F 66% 30.36 in 10.0 mi Calm Calm - N/A   Clear
4:15 AM 42.8 °F - 32.0 °F 66% 30.35 in 10.0 mi Calm Calm - N/A   Clear
4:35 AM 42.8 °F - 32.0 °F 66% 30.35 in 10.0 mi Calm Calm - N/A   Clear
4:55 AM 41.0 °F - 32.0 °F 70% 30.36 in 10.0 mi Calm Calm - N/A   Scattered Clouds
5:15 AM 39.2 °F - 32.0 °F 75% 30.36 in 10.0 mi Calm Calm - N/A   Mostly Cloudy
5:35 AM 41.0 °F - 32.0 °F 70% 30.36 in 10.0 mi Calm Calm - N/A   Mostly Cloudy
5:55 AM 42.8 °F - 32.0 °F 66% 30.37 in 10.0 mi Calm Calm - N/A   Overcast
6:15 AM 41.0 °F - 32.0 °F 70% 30.37 in 10.0 mi Calm Calm - N/A   Mostly Cloudy
6:35 AM 41.0 °F - 32.0 °F 70% 30.38 in 10.0 mi Calm Calm - N/A   Mostly Cloudy
6:55 AM 41.0 °F - 32.0 °F 70% 30.39 in 10.0 mi Calm Calm - N/A   Mostly Cloudy
7:15 AM 41.0 °F - 32.0 °F 70% 30.39 in 10.0 mi Calm Calm - N/A   Mostly Cloudy
7:35 AM 42.8 °F - 32.0 °F 66% 30.39 in 2.0 mi Calm Calm - N/A   Mostly Cloudy
7:55 AM 44.6 °F - 32.0 °F 61% 30.39 in 3.0 mi Calm Calm - N/A   Clear
8:15 AM 46.4 °F - 32.0 °F 57% 30.40 in 10.0 mi Calm Calm - N/A   Clear
8:35 AM 50.0 °F - 32.0 °F 50% 30.41 in 10.0 mi SSE 3.5 mph - N/A   Clear
8:55 AM 51.8 °F - 32.0 °F 47% 30.42 in 10.0 mi SE 3.5 mph - N/A   Clear
9:15 AM 53.6 °F - 30.2 °F 41% 30.42 in 10.0 mi SSE 4.6 mph - N/A   Clear
9:35 AM 53.6 °F - 30.2 °F 41% 30.43 in 10.0 mi SSE 3.5 mph - N/A   Clear
9:55 AM 55.4 °F - 30.2 °F 38% 30.43 in 10.0 mi South 4.6 mph - N/A   Clear
10:15 AM 55.4 °F - 30.2 °F 38% 30.43 in 10.0 mi East 6.9 mph - N/A   Clear
10:35 AM 59.0 °F - 30.2 °F 34% 30.43 in 10.0 mi ESE 6.9 mph - N/A   Clear
10:55 AM 60.8 °F - 30.2 °F 31% 30.42 in 10.0 mi East 6.9 mph - N/A   Clear
11:15 AM 60.8 °F - 30.2 °F 31% 30.42 in 10.0 mi East 5.8 mph - N/A   Clear
11:35 AM 60.8 °F - 30.2 °F 31% 30.41 in 10.0 mi ENE 5.8 mph - N/A   Clear
11:55 AM 62.6 °F - 30.2 °F 30% 30.40 in 10.0 mi Calm Calm - N/A   Clear
12:15 PM 62.6 °F - 30.2 °F 30% 30.39 in 10.0 mi NE 6.9 mph - N/A   Clear
12:35 PM 62.6 °F - 28.4 °F 27% 30.38 in 10.0 mi East 5.8 mph - N/A   Clear
12:55 PM 62.6 °F - 28.4 °F 27% 30.37 in 10.0 mi ENE 8.1 mph - N/A   Clear
1:15 PM 62.6 °F - 28.4 °F 27% 30.37 in 10.0 mi ENE 5.8 mph - N/A   Clear
1:35 PM 62.6 °F - 28.4 °F 27% 30.36 in 10.0 mi ENE 3.5 mph - N/A   Clear
1:55 PM 62.6 °F - 28.4 °F 27% 30.36 in 10.0 mi NE 6.9 mph - N/A   Clear
2:15 PM 62.6 °F - 30.2 °F 30% 30.34 in 10.0 mi East 5.8 mph - N/A   Clear
2:35 PM 62.6 °F - 30.2 °F 30% 30.34 in 10.0 mi ENE 5.8 mph - N/A   Clear
2:55 PM 62.6 °F - 30.2 °F 30% 30.34 in 10.0 mi ENE 8.1 mph - N/A   Clear
3:15 PM 62.6 °F - 28.4 °F 27% 30.34 in 10.0 mi NE 4.6 mph - N/A   Clear
3:35 PM 62.6 °F - 30.2 °F 30% 30.33 in 10.0 mi East 4.6 mph - N/A   Clear
3:55 PM 62.6 °F - 28.4 °F 27% 30.33 in 10.0 mi East 8.1 mph - N/A   Clear
4:15 PM 62.6 °F - 28.4 °F 27% 30.34 in 10.0 mi ENE 3.5 mph - N/A   Clear
4:35 PM 62.6 °F - 28.4 °F 27% 30.34 in 10.0 mi East 4.6 mph - N/A   Clear
4:55 PM 60.8 °F - 26.6 °F 27% 30.34 in 10.0 mi East 4.6 mph - N/A   Clear
5:15 PM 59.0 °F - 26.6 °F 29% 30.35 in 10.0 mi East 4.6 mph - N/A   Clear
5:35 PM 57.2 °F - 26.6 °F 31% 30.35 in 10.0 mi East 3.5 mph - N/A   Clear
5:55 PM 55.4 °F - 26.6 °F 33% 30.34 in 10.0 mi East 3.5 mph - N/A   Clear
6:15 PM 53.6 °F - 26.6 °F 35% 30.35 in 10.0 mi East 3.5 mph - N/A   Clear
6:35 PM 51.8 °F - 26.6 °F 38% 30.35 in 10.0 mi Calm Calm - N/A   Clear
6:55 PM 51.8 °F - 26.6 °F 38% 30.36 in 10.0 mi East 3.5 mph - N/A   Clear
7:15 PM 51.8 °F - 26.6 °F 38% 30.36 in 10.0 mi Calm Calm - N/A   Clear
7:55 PM 50.0 °F - 26.6 °F 40% 30.37 in 10.0 mi Calm Calm - N/A   Clear
8:15 PM 50.0 °F - 26.6 °F 40% 30.37 in 10.0 mi Calm Calm - N/A   Clear
8:35 PM 50.0 °F - 28.4 °F 43% 30.37 in 10.0 mi East 3.5 mph - N/A   Clear
8:55 PM 50.0 °F - 28.4 °F 43% 30.37 in 10.0 mi Calm Calm - N/A   Clear
9:15 PM 50.0 °F - 28.4 °F 43% 30.38 in 10.0 mi Calm Calm - N/A   Clear
9:35 PM 48.2 °F - 28.4 °F 46% 30.38 in 10.0 mi Calm Calm - N/A   Clear
9:55 PM 46.4 °F 45.2 °F 28.4 °F 50% 30.38 in 10.0 mi ESE 3.5 mph - N/A   Clear
10:15 PM 48.2 °F - 30.2 °F 50% 30.38 in 10.0 mi ESE 4.6 mph - N/A   Clear
10:35 PM 48.2 °F - 30.2 °F 50% 30.38 in 10.0 mi ESE 4.6 mph - N/A   Clear
10:55 PM 46.4 °F 45.2 °F 30.2 °F 53% 30.38 in 10.0 mi ESE 3.5 mph - N/A   Clear
11:15 PM 46.4 °F 45.2 °F 30.2 °F 53% 30.38 in 10.0 mi ESE 3.5 mph - N/A   Clear
11:35 PM 46.4 °F 45.2 °F 28.4 °F 50% 30.38 in 10.0 mi ESE 3.5 mph - N/A   Clear
11:55 PM 46.4 °F - 28.4 °F 50% 30.38 in 10.0 mi Calm Calm - N/A   Clear